Time,TemperatureF,DewpointF,PressureIn,WindDirection,WindDirectionDegrees,WindSpeedMPH,WindSpeedGustMPH,Humidity,HourlyPrecipIn,Conditions,Clouds,dailyrainin,SoftwareType,DateUTC
2013-04-21 00:02:00,43.0,33.0,30.34,ESE,112,8.0,12.0,70,-99.99,,,-99.99,,2013-04-21 05:02:00,
2013-04-21 00:12:00,42.0,33.0,30.35,ESE,112,8.0,11.0,71,-99.99,,,-99.99,,2013-04-21 05:12:00,
2013-04-21 00:22:00,42.0,34.0,30.35,ESE,112,7.0,11.0,72,-99.99,,,-99.99,,2013-04-21 05:22:00,
2013-04-21 00:32:00,42.0,34.0,30.35,ESE,112,9.0,14.0,72,-99.99,,,-99.99,,2013-04-21 05:32:00,
2013-04-21 00:42:00,42.0,34.0,30.35,ESE,112,8.0,11.0,73,-99.99,,,-99.99,,2013-04-21 05:42:00,
2013-04-21 00:52:00,42.0,34.0,30.35,ESE,112,8.0,11.0,73,-99.99,,,-99.99,,2013-04-21 05:52:00,
2013-04-21 01:01:00,42.0,34.0,30.35,ESE,112,9.0,13.0,72,-99.99,,,-99.99,,2013-04-21 06:01:00,
2013-04-21 01:12:00,42.0,34.0,30.35,ESE,112,9.0,12.0,73,-99.99,,,-99.99,,2013-04-21 06:12:00,
2013-04-21 01:21:00,42.0,34.0,30.35,ESE,112,8.0,10.0,73,-99.99,,,-99.99,,2013-04-21 06:21:00,
2013-04-21 01:32:00,42.0,34.0,30.35,ESE,112,7.0,11.0,73,-99.99,,,-99.99,,2013-04-21 06:32:00,
2013-04-21 01:42:00,42.0,34.0,30.35,ESE,112,7.0,11.0,74,-99.99,,,-99.99,,2013-04-21 06:42:00,
2013-04-21 01:51:00,42.0,34.0,30.35,ESE,112,9.0,12.0,73,-99.99,,,-99.99,,2013-04-21 06:51:00,
2013-04-21 02:01:00,41.0,34.0,30.35,ESE,112,7.0,11.0,75,-99.99,,,-99.99,,2013-04-21 07:01:00,
2013-04-21 02:11:00,41.0,34.0,30.35,ESE,112,7.0,9.0,77,-99.99,,,-99.99,,2013-04-21 07:11:00,
2013-04-21 02:21:00,41.0,34.0,30.35,ESE,112,7.0,11.0,77,-99.99,,,-99.99,,2013-04-21 07:21:00,
2013-04-21 02:31:00,40.0,34.0,30.35,ESE,112,7.0,10.0,78,-99.99,,,-99.99,,2013-04-21 07:31:00,
2013-04-21 02:41:00,40.0,34.0,30.35,ESE,112,7.0,9.0,78,-99.99,,,-99.99,,2013-04-21 07:41:00,
2013-04-21 02:52:00,40.0,34.0,30.35,ESE,112,7.0,11.0,78,-99.99,,,-99.99,,2013-04-21 07:52:00,
2013-04-21 03:01:00,40.0,34.0,30.35,ESE,112,8.0,12.0,78,-99.99,,,-99.99,,2013-04-21 08:01:00,
2013-04-21 03:12:00,40.0,34.0,30.35,ESE,112,7.0,9.0,77,-99.99,,,-99.99,,2013-04-21 08:12:00,
2013-04-21 03:21:00,41.0,34.0,30.35,ESE,112,8.0,13.0,76,-99.99,,,-99.99,,2013-04-21 08:21:00,
2013-04-21 03:32:00,41.0,34.0,30.35,ESE,112,8.0,10.0,76,-99.99,,,-99.99,,2013-04-21 08:32:00,
2013-04-21 03:41:00,41.0,34.0,30.35,ESE,112,8.0,11.0,76,-99.99,,,-99.99,,2013-04-21 08:41:00,
2013-04-21 03:52:00,41.0,34.0,30.35,ESE,112,7.0,13.0,76,-99.99,,,-99.99,,2013-04-21 08:52:00,
2013-04-21 04:01:00,42.0,34.0,30.36,ESE,112,7.0,12.0,75,-99.99,,,-99.99,,2013-04-21 09:01:00,
2013-04-21 04:11:00,42.0,34.0,30.36,SE,135,9.0,12.0,75,-99.99,,,-99.99,,2013-04-21 09:11:00,
2013-04-21 04:21:00,42.0,34.0,30.36,SE,135,9.0,14.0,75,-99.99,,,-99.99,,2013-04-21 09:21:00,
2013-04-21 04:32:00,42.0,35.0,30.36,SE,135,8.0,12.0,76,-99.99,,,-99.99,,2013-04-21 09:32:00,
2013-04-21 04:43:00,42.0,35.0,30.36,SE,135,8.0,12.0,76,-99.99,,,-99.99,,2013-04-21 09:43:00,
2013-04-21 04:52:00,42.0,35.0,30.36,SE,135,8.0,13.0,77,-99.99,,,-99.99,,2013-04-21 09:52:00,
2013-04-21 05:02:00,42.0,35.0,30.36,SE,135,8.0,13.0,77,-99.99,,,-99.99,,2013-04-21 10:02:00,
2013-04-21 05:12:00,42.0,35.0,30.36,SE,135,8.0,12.0,77,-99.99,,,-99.99,,2013-04-21 10:12:00,
2013-04-21 05:22:00,42.0,35.0,30.37,SE,135,8.0,12.0,77,-99.99,,,-99.99,,2013-04-21 10:22:00,
2013-04-21 05:32:00,42.0,35.0,30.37,SE,135,9.0,14.0,77,-99.99,,,-99.99,,2013-04-21 10:32:00,
2013-04-21 05:42:00,42.0,35.0,30.37,SE,135,8.0,12.0,77,-99.99,,,-99.99,,2013-04-21 10:42:00,
2013-04-21 05:52:00,42.0,35.0,30.37,SE,135,10.0,15.0,76,-99.99,,,-99.99,,2013-04-21 10:52:00,
2013-04-21 06:02:00,42.0,35.0,30.37,SE,135,10.0,17.0,76,-99.99,,,-99.99,,2013-04-21 11:02:00,
2013-04-21 06:12:00,42.0,35.0,30.37,SE,135,10.0,15.0,76,-99.99,,,-99.99,,2013-04-21 11:12:00,
2013-04-21 06:22:00,42.0,35.0,30.37,SE,135,10.0,17.0,76,-99.99,,,-99.99,,2013-04-21 11:22:00,
2013-04-21 06:33:00,42.0,35.0,30.38,SE,135,10.0,14.0,75,-99.99,,,-99.99,,2013-04-21 11:33:00,
2013-04-21 06:42:00,42.0,35.0,30.38,SE,135,9.0,12.0,76,-99.99,,,-99.99,,2013-04-21 11:42:00,
2013-04-21 06:52:00,42.0,35.0,30.38,SE,135,11.0,17.0,76,-99.99,,,-99.99,,2013-04-21 11:52:00,
2013-04-21 07:02:00,42.0,35.0,30.38,SE,135,12.0,17.0,76,-99.99,,,-99.99,,2013-04-21 12:02:00,
2013-04-21 07:12:00,42.0,35.0,30.39,SE,135,12.0,17.0,75,-99.99,,,-99.99,,2013-04-21 12:12:00,
2013-04-21 07:22:00,42.0,35.0,30.39,SE,135,12.0,17.0,74,-99.99,,,-99.99,,2013-04-21 12:22:00,
2013-04-21 07:32:00,43.0,35.0,30.39,SE,135,11.0,18.0,75,-99.99,,,-99.99,,2013-04-21 12:32:00,
2013-04-21 07:42:00,43.0,35.0,30.39,SE,135,12.0,17.0,74,-99.99,,,-99.99,,2013-04-21 12:42:00,
2013-04-21 07:52:00,43.0,35.0,30.39,SE,135,12.0,18.0,74,-99.99,,,-99.99,,2013-04-21 12:52:00,
2013-04-21 08:01:00,43.0,35.0,30.39,SE,135,13.0,17.0,72,-99.99,,,-99.99,,2013-04-21 13:01:00,
2013-04-21 08:11:00,43.0,35.0,30.39,SE,135,13.0,21.0,72,-99.99,,,-99.99,,2013-04-21 13:11:00,
2013-04-21 08:21:00,44.0,35.0,30.39,SE,135,13.0,18.0,72,-99.99,,,-99.99,,2013-04-21 13:21:00,
2013-04-21 08:32:00,44.0,36.0,30.39,SE,135,12.0,18.0,72,-99.99,,,-99.99,,2013-04-21 13:32:00,
2013-04-21 08:42:00,45.0,36.0,30.40,SSE,157,13.0,20.0,70,-99.99,,,-99.99,,2013-04-21 13:42:00,
2013-04-21 08:52:00,45.0,37.0,30.40,SE,135,12.0,17.0,71,-99.99,,,-99.99,,2013-04-21 13:52:00,
2013-04-21 09:01:00,46.0,36.0,30.40,SE,135,13.0,20.0,69,-99.99,,,-99.99,,2013-04-21 14:01:00,
2013-04-21 09:11:00,47.0,36.0,30.40,SE,135,14.0,19.0,68,-99.99,,,-99.99,,2013-04-21 14:11:00,
2013-04-21 09:21:00,47.0,37.0,30.40,SSE,157,13.0,20.0,67,-99.99,,,-99.99,,2013-04-21 14:21:00,
2013-04-21 09:32:00,48.0,36.0,30.40,SSE,157,15.0,21.0,65,-99.99,,,-99.99,,2013-04-21 14:32:00,
2013-04-21 09:42:00,48.0,37.0,30.40,SSE,157,14.0,20.0,65,-99.99,,,-99.99,,2013-04-21 14:42:00,
2013-04-21 09:52:00,48.0,38.0,30.40,SE,135,13.0,17.0,67,-99.99,,,-99.99,,2013-04-21 14:52:00,
2013-04-21 10:02:00,48.0,38.0,30.40,SE,135,13.0,20.0,66,-99.99,,,-99.99,,2013-04-21 15:02:00,
2013-04-21 10:11:00,49.0,38.0,30.40,SE,135,13.0,19.0,66,-99.99,,,-99.99,,2013-04-21 15:11:00,
2013-04-21 10:22:00,50.0,39.0,30.40,SE,135,12.0,17.0,66,-99.99,,,-99.99,,2013-04-21 15:22:00,
2013-04-21 10:33:00,51.0,39.0,30.40,SSE,157,14.0,20.0,63,-99.99,,,-99.99,,2013-04-21 15:33:00,
2013-04-21 10:42:00,52.0,39.0,30.40,SSE,157,13.0,18.0,63,-99.99,,,-99.99,,2013-04-21 15:42:00,
2013-04-21 10:53:00,52.0,39.0,30.40,SSE,157,12.0,17.0,63,-99.99,,,-99.99,,2013-04-21 15:53:00,
2013-04-21 11:03:00,53.0,41.0,30.39,SE,135,11.0,15.0,63,-99.99,,,-99.99,,2013-04-21 16:03:00,
2013-04-21 11:12:00,53.0,41.0,30.39,SE,135,12.0,16.0,62,-99.99,,,-99.99,,2013-04-21 16:12:00,
2013-04-21 11:22:00,55.0,40.0,30.39,SE,135,12.0,17.0,58,-99.99,,,-99.99,,2013-04-21 16:22:00,
2013-04-21 11:32:00,56.0,41.0,30.39,SSE,157,12.0,19.0,57,-99.99,,,-99.99,,2013-04-21 16:32:00,
2013-04-21 11:42:00,55.0,40.0,30.39,SSE,157,12.0,18.0,56,-99.99,,,-99.99,,2013-04-21 16:42:00,
2013-04-21 11:52:00,56.0,41.0,30.38,SSE,157,11.0,16.0,58,-99.99,,,-99.99,,2013-04-21 16:52:00,
2013-04-21 12:02:00,57.0,41.0,30.38,SSE,157,11.0,14.0,57,-99.99,,,-99.99,,2013-04-21 17:02:00,
2013-04-21 12:12:00,58.0,43.0,30.38,SSE,157,8.0,12.0,58,-99.99,,,-99.99,,2013-04-21 17:12:00,
2013-04-21 12:22:00,58.0,42.0,30.37,SSE,157,11.0,16.0,56,-99.99,,,-99.99,,2013-04-21 17:22:00,
2013-04-21 12:32:00,58.0,41.0,30.37,SSE,157,11.0,16.0,55,-99.99,,,-99.99,,2013-04-21 17:32:00,
2013-04-21 12:42:00,59.0,43.0,30.36,SSE,157,11.0,16.0,56,-99.99,,,-99.99,,2013-04-21 17:42:00,
2013-04-21 12:52:00,59.0,42.0,30.36,SSE,157,11.0,14.0,55,-99.99,,,-99.99,,2013-04-21 17:52:00,
2013-04-21 13:02:00,59.0,43.0,30.36,SSE,157,11.0,16.0,56,-99.99,,,-99.99,,2013-04-21 18:02:00,
2013-04-21 13:11:00,59.0,43.0,30.35,SSE,157,11.0,15.0,55,-99.99,,,-99.99,,2013-04-21 18:11:00,
2013-04-21 13:22:00,59.0,43.0,30.35,SSE,157,12.0,17.0,54,-99.99,,,-99.99,,2013-04-21 18:22:00,
2013-04-21 13:32:00,59.0,43.0,30.35,SE,135,10.0,13.0,55,-99.99,,,-99.99,,2013-04-21 18:32:00,
2013-04-21 13:42:00,60.0,44.0,30.34,SE,135,11.0,17.0,56,-99.99,,,-99.99,,2013-04-21 18:42:00,
2013-04-21 13:52:00,59.0,43.0,30.34,SSE,157,10.0,15.0,55,-99.99,,,-99.99,,2013-04-21 18:52:00,
2013-04-21 14:02:00,59.0,43.0,30.33,SSE,157,11.0,14.0,55,-99.99,,,-99.99,,2013-04-21 19:02:00,
2013-04-21 14:11:00,59.0,43.0,30.33,SSE,157,10.0,15.0,55,-99.99,,,-99.99,,2013-04-21 19:11:00,
2013-04-21 14:21:00,59.0,43.0,30.33,SE,135,11.0,14.0,55,-99.99,,,-99.99,,2013-04-21 19:21:00,
2013-04-21 14:32:00,59.0,44.0,30.32,SSE,157,10.0,15.0,57,-99.99,,,-99.99,,2013-04-21 19:32:00,
2013-04-21 14:42:00,61.0,44.0,30.32,SSE,157,11.0,14.0,54,-99.99,,,-99.99,,2013-04-21 19:42:00,
2013-04-21 14:52:00,60.0,43.0,30.31,SSE,157,11.0,17.0,53,-99.99,,,-99.99,,2013-04-21 19:52:00,
2013-04-21 15:01:00,62.0,44.0,30.31,SSE,157,11.0,15.0,53,-99.99,,,-99.99,,2013-04-21 20:01:00,
2013-04-21 15:11:00,62.0,44.0,30.30,SSE,157,11.0,16.0,52,-99.99,,,-99.99,,2013-04-21 20:11:00,
2013-04-21 15:22:00,62.0,44.0,30.30,SSE,157,11.0,14.0,52,-99.99,,,-99.99,,2013-04-21 20:22:00,
2013-04-21 15:31:00,62.0,45.0,30.29,SSE,157,10.0,14.0,52,-99.99,,,-99.99,,2013-04-21 20:31:00,
2013-04-21 15:41:00,63.0,45.0,30.29,SE,135,9.0,13.0,52,-99.99,,,-99.99,,2013-04-21 20:41:00,
2013-04-21 15:52:00,63.0,45.0,30.28,SSE,157,10.0,16.0,52,-99.99,,,-99.99,,2013-04-21 20:52:00,
2013-04-21 16:02:00,63.0,45.0,30.28,SSE,157,11.0,15.0,51,-99.99,,,-99.99,,2013-04-21 21:02:00,
2013-04-21 16:12:00,63.0,44.0,30.28,SSE,157,11.0,16.0,51,-99.99,,,-99.99,,2013-04-21 21:12:00,
2013-04-21 16:21:00,63.0,45.0,30.27,SE,135,10.0,14.0,53,-99.99,,,-99.99,,2013-04-21 21:21:00,
2013-04-21 16:33:00,63.0,46.0,30.27,SE,135,9.0,16.0,53,-99.99,,,-99.99,,2013-04-21 21:33:00,
2013-04-21 16:43:00,63.0,45.0,30.27,SE,135,11.0,16.0,51,-99.99,,,-99.99,,2013-04-21 21:43:00,
2013-04-21 16:53:00,63.0,45.0,30.27,SSE,157,11.0,16.0,51,-99.99,,,-99.99,,2013-04-21 21:53:00,
2013-04-21 17:02:00,63.0,45.0,30.27,SSE,157,10.0,18.0,51,-99.99,,,-99.99,,2013-04-21 22:02:00,
2013-04-21 17:12:00,62.0,44.0,30.26,SE,135,11.0,15.0,51,-99.99,,,-99.99,,2013-04-21 22:12:00,
2013-04-21 17:22:00,62.0,44.0,30.26,SE,135,10.0,14.0,52,-99.99,,,-99.99,,2013-04-21 22:22:00,
2013-04-21 17:33:00,62.0,45.0,30.26,SE,135,9.0,14.0,54,-99.99,,,-99.99,,2013-04-21 22:33:00,
2013-04-21 17:43:00,62.0,45.0,30.26,ESE,112,8.0,12.0,54,-99.99,,,-99.99,,2013-04-21 22:43:00,
2013-04-21 17:52:00,61.0,45.0,30.26,SE,135,8.0,13.0,55,-99.99,,,-99.99,,2013-04-21 22:52:00,
2013-04-21 18:02:00,61.0,43.0,30.26,SE,135,10.0,14.0,53,-99.99,,,-99.99,,2013-04-21 23:02:00,
2013-04-21 18:12:00,60.0,44.0,30.26,SE,135,8.0,14.0,55,-99.99,,,-99.99,,2013-04-21 23:12:00,
2013-04-21 18:22:00,61.0,45.0,30.27,SE,135,6.0,12.0,57,-99.99,,,-99.99,,2013-04-21 23:22:00,
2013-04-21 18:32:00,61.0,45.0,30.26,ESE,112,7.0,11.0,55,-99.99,,,-99.99,,2013-04-21 23:32:00,
2013-04-21 18:42:00,60.0,44.0,30.26,SE,135,8.0,13.0,55,-99.99,,,-99.99,,2013-04-21 23:42:00,
2013-04-21 18:52:00,59.0,44.0,30.26,ESE,112,7.0,10.0,55,-99.99,,,-99.99,,2013-04-21 23:52:00,
2013-04-21 19:01:00,59.0,44.0,30.26,ESE,112,7.0,10.0,56,-99.99,,,-99.99,,2013-04-22 00:01:00,
2013-04-21 19:11:00,59.0,43.0,30.26,ESE,112,7.0,10.0,56,-99.99,,,-99.99,,2013-04-22 00:11:00,
2013-04-21 19:21:00,59.0,43.0,30.26,ESE,112,7.0,11.0,57,-99.99,,,-99.99,,2013-04-22 00:21:00,
2013-04-21 19:32:00,58.0,43.0,30.26,ESE,112,8.0,12.0,58,-99.99,,,-99.99,,2013-04-22 00:32:00,
2013-04-21 19:42:00,57.0,44.0,30.26,ESE,112,7.0,10.0,60,-99.99,,,-99.99,,2013-04-22 00:42:00,
2013-04-21 19:51:00,57.0,44.0,30.26,ESE,112,8.0,11.0,62,-99.99,,,-99.99,,2013-04-22 00:51:00,
2013-04-21 20:01:00,56.0,44.0,30.26,ESE,112,7.0,10.0,63,-99.99,,,-99.99,,2013-04-22 01:01:00,
2013-04-21 20:12:00,56.0,43.0,30.26,ESE,112,8.0,11.0,61,-99.99,,,-99.99,,2013-04-22 01:12:00,
2013-04-21 20:21:00,56.0,43.0,30.27,ESE,112,7.0,11.0,61,-99.99,,,-99.99,,2013-04-22 01:21:00,
2013-04-21 20:32:00,56.0,43.0,30.27,ESE,112,7.0,13.0,61,-99.99,,,-99.99,,2013-04-22 01:32:00,
2013-04-21 20:41:00,56.0,43.0,30.27,ESE,112,8.0,12.0,61,-99.99,,,-99.99,,2013-04-22 01:41:00,
2013-04-21 20:52:00,56.0,43.0,30.27,ESE,112,9.0,13.0,61,-99.99,,,-99.99,,2013-04-22 01:52:00,
2013-04-21 21:02:00,56.0,43.0,30.27,ESE,112,8.0,12.0,61,-99.99,,,-99.99,,2013-04-22 02:02:00,
2013-04-21 21:11:00,55.0,43.0,30.27,ESE,112,8.0,11.0,62,-99.99,,,-99.99,,2013-04-22 02:11:00,
2013-04-21 21:21:00,55.0,43.0,30.28,ESE,112,6.0,9.0,65,-99.99,,,-99.99,,2013-04-22 02:21:00,
2013-04-21 21:32:00,55.0,43.0,30.28,ESE,112,7.0,11.0,64,-99.99,,,-99.99,,2013-04-22 02:32:00,
2013-04-21 21:42:00,55.0,43.0,30.28,ESE,112,8.0,12.0,64,-99.99,,,-99.99,,2013-04-22 02:42:00,
2013-04-21 21:51:00,55.0,43.0,30.28,ESE,112,9.0,13.0,64,-99.99,,,-99.99,,2013-04-22 02:51:00,
2013-04-21 22:02:00,55.0,43.0,30.28,ESE,112,9.0,15.0,65,-99.99,,,-99.99,,2013-04-22 03:02:00,
2013-04-21 22:11:00,54.0,43.0,30.28,ESE,112,9.0,12.0,65,-99.99,,,-99.99,,2013-04-22 03:11:00,
2013-04-21 22:22:00,54.0,43.0,30.29,SE,135,9.0,14.0,66,-99.99,,,-99.99,,2013-04-22 03:22:00,
2013-04-21 22:33:00,54.0,43.0,30.29,ESE,112,9.0,13.0,66,-99.99,,,-99.99,,2013-04-22 03:33:00,
2013-04-21 22:42:00,54.0,43.0,30.29,SE,135,8.0,13.0,66,-99.99,,,-99.99,,2013-04-22 03:42:00,
2013-04-21 22:52:00,54.0,43.0,30.29,SE,135,9.0,13.0,66,-99.99,,,-99.99,,2013-04-22 03:52:00,
2013-04-21 23:02:00,53.0,42.0,30.29,SE,135,9.0,13.0,66,-99.99,,,-99.99,,2013-04-22 04:02:00,
2013-04-21 23:12:00,53.0,42.0,30.29,SE,135,9.0,13.0,67,-99.99,,,-99.99,,2013-04-22 04:12:00,
2013-04-21 23:23:00,53.0,42.0,30.29,SE,135,8.0,13.0,68,-99.99,,,-99.99,,2013-04-22 04:23:00,
2013-04-21 23:32:00,52.0,42.0,30.29,SE,135,8.0,12.0,68,-99.99,,,-99.99,,2013-04-22 04:32:00,
2013-04-21 23:43:00,52.0,42.0,30.28,SE,135,7.0,11.0,68,-99.99,,,-99.99,,2013-04-22 04:43:00,
2013-04-21 23:52:00,52.0,42.0,30.28,SE,135,7.0,12.0,68,-99.99,,,-99.99,,2013-04-22 04:52:00,